Location: Pebble Beach Sunset Acres
(33.0837°N, 96.4508°W)
Time: 17:37:48
(UTC+00:00)

Okean 1 - Pass Details

Date: 03 July 2022
Orbit: 532 x 552 km, 82.5° (Epoch: 17 August)

Event Time Altitude Azimuth Distance (km) Brightness Sun altitude
Rises 08:58:19 0° 12° (NNE) 2,686 7.9 -23.8°
Reaches altitude 10° 09:00:59 10° 31° (NNE) 1,788 7.0 -23.4°
Maximum altitude 09:03:48 19° 77° (ENE) 1,318 5.8 -23.1°
Drops below altitude 10° 09:06:36 10° 123° (ESE) 1,776 6.0 -22.7°
Enters shadow 09:07:45 - 133° (SE) 2,135 6.3 -22.5°
